No identification; RunOff= 53.8: 

 

1999 HW2 

Epoch 1999 Aug. 10.0 TT = JDT 2451400.5                 Nakano

M   9.75900              (2000.0)            P               Q

n   0.23371598     Peri.   85.20537     -0.07195822     +0.99738970

a   2.6102200      Node   180.75090     -0.99533078     -0.07142018

e   0.4063290      Incl.   27.16415     +0.06433242     +0.01062736

P   4.22           H   15.8           G   0.15           U   3

Residuals in seconds of arc 

990417 699  0.3+  0.9-    990426 426  0.1+  0.3+    990630 118  0.5-  0.0   

990417 699  0.5-  1.5-    990426 426  0.0   0.5+    990630 118  0.1-  0.1-  

990417 699  0.4-  0.8-    990426 360  0.3+  0.0     990702 118  0.5+  0.0   

990420 704 (3.2-  0.6+)   990426 360  0.4+  0.2-    990702 118  0.0   0.2+  

990420 704  1.9-  0.1+    990426 360  0.5+  0.2-    990708 587  0.1-  0.1+  

990420 704  0.1-  1.6+    990426 046  0.1-  0.1+    990709 402  0.0   0.4-  

990420 704  1.5-  1.0+    990426 557  0.1+  0.2-    990709 402  0.6+  0.5-  

990423 704  0.0   0.3-    990426 046  0.2-  0.3-    990709 402  0.7+  0.6-  

990423 704  1.7+  1.9+    990426 046  0.4+  0.1+    990714 360  0.0   0.0   

990423 704  0.6-  0.4-    990426 557  0.3+  0.5-    990714 360  0.2-  0.1+  

990423 704  2.0-  1.6+    990426 557  0.2+  0.0     990714 360  0.2+  0.0   

990423 704 (4.2-  0.1-)   990426 046  0.3-  0.3-    990717 071  0.2+  0.3+  

990424 327  0.6-  0.7-    990507 719  0.9-  0.8+    990717 071  0.5+  0.4-  

990424 327  0.2+  0.7-    990507 719  0.5-  0.7+    990717 071  0.0   0.3-  

990424 327  1.4+  0.5-    990510 118  0.1-  0.1-    990717 118  0.3-  0.1-  

990424 046  0.5+  0.0     990510 118  0.2+  0.2+    990717 118  0.5+  0.0   

990424 557  0.2-  0.4-    990510 118  0.2-  0.1-    990719 118  0.1+  0.3+  

990424 046  0.3-  0.3+    990513 704  0.8+  0.2-    990719 118  0.1-  0.6+  

990424 557  0.1+  0.3-    990513 704  1.1+  0.2-    990722 402  0.1+  0.7-  

990424 046  0.5-  0.1-    990513 704  1.5-  0.2-    990722 402  0.2-  0.4-  

990424 557  0.3+  0.2-    990513 704  0.6-  0.1+    990722 402  0.1+  0.3-  

990424 557  0.0   0.3-    990513 704  0.0   0.5+    990801 118  0.3+  0.0   

990424 611  0.4+  0.5+    990515 704  0.0   1.3-    990801 118  0.2-  0.7-  

990424 611  0.1-  0.3+    990515 704  0.4-  0.1-    990802 658  0.0   0.3+  

990424 611  0.4+  0.4-    990515 704  1.0+  1.3-    990802 658  0.2-  0.2+  

990425 859  0.3+  0.0     990515 704  0.7-  0.2+    990802 658  0.1-  0.2+  

990425 859  0.2+  0.1-    990515 704  0.4-  1.0-    990806 118  0.5-  0.3-  

990425 859  0.7+  0.5-    990517 860  1.3+  0.7+    990806 118  0.5-  0.1-  

990425 046  0.6-  0.2+    990517 860  1.3+  1.2+    990806 118  0.5-  0.1+  

990425 046  1.0-  0.5-    990520 118  0.0   0.2+    990810 658  0.2-  0.6+  

990425 046  0.8-  0.1+    990520 118  0.1+  0.8+    990810 658  0.0   0.5+  

990425 046  0.1-  0.2-    990524 658  0.1-  0.1+    990810 658  0.2-  0.4+  

990425 046  0.3-  0.1+    990524 658  0.2-  0.1+    990811 704  0.3+  1.0+  

990425 104  1.3+  0.0     990528 046  0.1+  0.1+    990811 704  0.4-  0.8+  

990425 104  0.4+  0.0     990528 046  0.2-  0.2+    990811 704  0.3+  0.9+  

990425 104  0.7+  0.3+    990528 046  0.0   0.1+    990811 704  0.2+  0.7+  

990426 704  1.3-  0.5-    990531 402  0.6+  0.4-    990814 118  0.3-  0.2-  

990426 704  1.3+  0.2+    990531 402  0.5-  0.7-    990814 118  0.4+  1.2-  

990426 704  0.2+  0.2+    990531 402  0.1-  0.5-    990912 360  0.1+  0.2-  

990426 658  0.3+  0.2+    990602 118  0.4+  0.4+    990912 360  0.4+  0.2-  

990426 658  0.4+  0.8+    990602 118  0.4+  0.3+    990912 360  0.0   0.6-  

990426 658  0.4+  0.1-    990625 595  0.3-  0.6-                            

990426 426  0.2+  0.2+    990625 595  2.0-  0.2-                            

 



No identification:

 

1999 HW2 

Epoch 1999 Aug. 10.0 TT = JDT 2451400.5                 Nakano

M   9.75912              (2000.0)            P               Q

n   0.23372383     Peri.   85.20645     -0.07194653     +0.99739057

a   2.6101616      Node   180.75045     -0.99533200     -0.07140882

e   0.4063204      Incl.   27.16378     +0.06432651     +0.01062249

P   4.22           H   15.8           G   0.15           U   4



–ß‚è‚Ü‚·B